�������l�o���
Date,Time,MP-1(��Sv/h),MP-2(��Sv/h),MP-3(��Sv/h),MP-4(��Sv/h),MP-5(��Sv/h),MP-6(��Sv/h),MP-7(��Sv/h),MP-8(��Sv/h),����,����(m/s),���J
2022/04/01,00:00,0.583,0.864,0.552,1.059,0.744,0.351,0.606,0.573,���쓌,7.2,�L
2022/04/01,00:10,0.582,0.862,0.551,1.062,0.748,0.351,0.605,0.572,�k,6.1,�L
2022/04/01,00:20,0.581,0.864,0.553,1.060,0.746,0.352,0.604,0.571,�k,5.5,��
2022/04/01,00:30,0.581,0.863,0.551,1.060,0.746,0.351,0.606,0.572,�k,6.5,��
2022/04/01,00:40,0.581,0.862,0.550,1.059,0.744,0.350,0.606,0.571,�k,5.8,�L
2022/04/01,00:50,0.581,0.864,0.551,1.058,0.745,0.350,0.607,0.572,�k,6.3,��
2022/04/01,01:00,0.580,0.862,0.549,1.059,0.744,0.349,0.603,0.570,�k�k��,5.4,��
2022/04/01,01:10,0.581,0.861,0.551,1.058,0.743,0.350,0.606,0.571,�k,5.7,��
2022/04/01,01:20,0.580,0.862,0.549,1.059,0.745,0.350,0.606,0.571,�k�k��,6.0,��
2022/04/01,01:30,0.580,0.861,0.549,1.059,0.745,0.348,0.607,0.570,�k,4.9,��
2022/04/01,01:40,0.580,0.861,0.551,1.059,0.744,0.349,0.605,0.572,�k,6.1,��
2022/04/01,01:50,0.581,0.862,0.550,1.057,0.743,0.349,0.604,0.572,�k,7.0,��
2022/04/01,02:00,0.581,0.864,0.548,1.057,0.744,0.349,0.604,0.571,�k,6.9,��
2022/04/01,02:10,0.582,0.861,0.550,1.059,0.745,0.348,0.606,0.570,�k,5.8,��
2022/04/01,02:20,0.580,0.861,0.550,1.059,0.745,0.349,0.605,0.571,�k,6.0,��
2022/04/01,02:30,0.581,0.862,0.548,1.059,0.744,0.347,0.606,0.570,�k,6.5,��
2022/04/01,02:40,0.581,0.863,0.551,1.056,0.744,0.349,0.606,0.571,�k,6.9,��
2022/04/01,02:50,0.580,0.860,0.549,1.057,0.746,0.349,0.604,0.570,�k,5.5,��
2022/04/01,03:00,0.580,0.859,0.549,1.058,0.745,0.348,0.605,0.572,�k�k��,7.7,��
2022/04/01,03:10,0.579,0.863,0.551,1.059,0.743,0.347,0.607,0.570,�k�k��,6.3,��
2022/04/01,03:20,0.580,0.861,0.548,1.060,0.744,0.349,0.606,0.572,�k�k��,7.8,��
2022/04/01,03:30,0.579,0.862,0.548,1.058,0.744,0.349,0.605,0.570,�k�k��,6.1,��
2022/04/01,03:40,0.580,0.861,0.550,1.058,0.744,0.348,0.606,0.571,�k�k��,7.6,��
2022/04/01,03:50,0.583,0.863,0.548,1.059,0.742,0.349,0.605,0.570,�k�k��,6.5,��
2022/04/01,04:00,0.581,0.861,0.550,1.056,0.745,0.348,0.605,0.571,�k�k��,9.2,��
2022/04/01,04:10,0.581,0.864,0.550,1.060,0.745,0.348,0.603,0.569,�k�k��,8.5,��
2022/04/01,04:20,0.581,0.862,0.549,1.058,0.743,0.349,0.605,0.570,�k,8.3,��
2022/04/01,04:30,0.580,0.861,0.549,1.059,0.746,0.349,0.604,0.571,�k�k��,7.9,��
2022/04/01,04:40,0.578,0.861,0.549,1.060,0.745,0.348,0.607,0.571,�k�k��,5.5,��
2022/04/01,04:50,0.579,0.862,0.549,1.059,0.746,0.347,0.606,0.571,�k�k��,8.4,��
2022/04/01,05:00,0.580,0.864,0.550,1.060,0.746,0.348,0.605,0.570,�k�k��,8.7,��
2022/04/01,05:10,0.579,0.861,0.551,1.059,0.745,0.349,0.605,0.571,�k�k��,9.5,��
2022/04/01,05:20,0.579,0.861,0.550,1.059,0.746,0.347,0.605,0.570,�k�k��,9.2,��
2022/04/01,05:30,0.580,0.863,0.549,1.060,0.745,0.349,0.605,0.570,�k�k��,9.7,��
2022/04/01,05:40,0.580,0.862,0.549,1.060,0.746,0.348,0.605,0.570,�k�k��,8.7,��
2022/04/01,05:50,0.579,0.862,0.550,1.060,0.744,0.347,0.606,0.572,�k,7.1,��
2022/04/01,06:00,0.581,0.864,0.550,1.060,0.744,0.348,0.605,0.570,�k�k��,8.3,��
2022/04/01,06:10,0.576,0.863,0.549,1.059,0.745,0.348,0.606,0.569,�k�k��,8.3,��
2022/04/01,06:20,0.579,0.863,0.549,1.060,0.747,0.347,0.605,0.571,�k�k��,7.9,��
2022/04/01,06:30,0.579,0.863,0.549,1.061,0.745,0.347,0.603,0.572,�k�k��,8.6,��
2022/04/01,06:40,0.581,0.863,0.549,1.059,0.745,0.348,0.605,0.570,�k�k��,7.7,��
2022/04/01,06:50,0.582,0.863,0.550,1.061,0.747,0.348,0.604,0.572,�k�k��,9.2,��
2022/04/01,07:00,0.579,0.863,0.550,1.060,0.748,0.349,0.606,0.572,�k�k��,10.2,��
2022/04/01,07:10,0.579,0.864,0.550,1.062,0.746,0.347,0.604,0.571,�k�k��,7.9,��
2022/04/01,07:20,0.580,0.861,0.550,1.058,0.746,0.348,0.604,0.572,�k�k��,8.7,��
2022/04/01,07:30,0.580,0.862,0.550,1.060,0.747,0.347,0.604,0.570,�k�k��,8.0,��
2022/04/01,07:40,0.581,0.863,0.549,1.061,0.744,0.347,0.605,0.571,�k�k��,7.0,��
2022/04/01,07:50,0.580,0.863,0.550,1.062,0.747,0.346,0.605,0.572,�k�k��,7.2,��
2022/04/01,08:00,0.581,0.862,0.551,1.061,0.747,0.349,0.605,0.571,�k�k��,6.2,��
2022/04/01,08:10,0.582,0.863,0.550,1.062,0.746,0.349,0.606,0.569,�k�k��,6.3,��
2022/04/01,08:20,0.580,0.862,0.550,1.062,0.746,0.349,0.607,0.570,�k,6.0,��
2022/04/01,08:30,0.580,0.860,0.549,1.059,0.744,0.348,0.605,0.571,�k,6.7,��
2022/04/01,08:40,0.581,0.860,0.550,1.061,0.748,0.348,0.604,0.571,�k,4.8,��
2022/04/01,08:50,0.581,0.862,0.550,1.062,0.747,0.348,0.605,0.571,�k,6.0,��
2022/04/01,09:00,0.582,0.863,0.550,1.062,0.746,0.347,0.606,0.571,�k,5.6,��
2022/04/01,09:10,0.578,0.862,0.549,1.062,0.746,0.346,0.604,0.570,�k,6.7,��
2022/04/01,09:20,0.580,0.861,0.550,1.062,0.746,0.347,0.605,0.571,�k�k��,6.7,��
2022/04/01,09:30,0.581,0.862,0.550,1.062,0.748,0.348,0.603,0.569,�k,5.8,��
2022/04/01,09:40,0.582,0.860,0.548,1.063,0.748,0.348,0.606,0.573,�k,5.4,��
2022/04/01,09:50,0.581,0.861,0.550,1.063,0.747,0.348,0.602,0.571,�k�k��,5.6,��
2022/04/01,10:00,0.582,0.862,0.551,1.062,0.747,0.347,0.606,0.571,�k�k��,5.5,��
2022/04/01,10:10,0.581,0.862,0.552,1.061,0.748,0.351,0.605,0.571,�k�k��,6.0,��
2022/04/01,10:20,0.583,0.864,0.551,1.064,0.746,0.347,0.602,0.571,�k��,3.8,��
2022/04/01,10:30,0.581,0.861,0.551,1.064,0.749,0.347,0.604,0.572,�k�k��,5.9,��
2022/04/01,10:40,0.582,0.863,0.551,1.063,0.748,0.348,0.603,0.571,�k�k��,6.1,��
2022/04/01,10:50,0.582,0.863,0.551,1.063,0.749,0.348,0.604,0.572,�k�k��,6.1,��
2022/04/01,11:00,0.583,0.863,0.552,1.062,0.747,0.350,0.602,0.572,�k�k��,6.1,��
2022/04/01,11:10,0.584,0.863,0.550,1.065,0.747,0.349,0.604,0.572,�k�k��,8.9,��
2022/04/01,11:20,0.582,0.859,0.550,1.065,0.748,0.350,0.604,0.571,�k��,7.2,��
2022/04/01,11:30,0.582,0.860,0.550,1.064,0.747,0.349,0.603,0.569,�k��,8.6,��
2022/04/01,11:40,0.583,0.862,0.550,1.063,0.748,0.349,0.602,0.571,�k�k��,7.2,��
2022/04/01,11:50,0.584,0.862,0.551,1.064,0.745,0.348,0.604,0.570,�k�k��,7.4,��
2022/04/01,12:00,0.583,0.863,0.553,1.064,0.748,0.348,0.603,0.570,�k�k��,6.8,��
2022/04/01,12:10,0.582,0.865,0.551,1.064,0.745,0.348,0.604,0.569,�k��,8.5,��
2022/04/01,12:20,0.584,0.864,0.552,1.064,0.750,0.349,0.605,0.569,�k��,8.9,��
2022/04/01,12:30,0.584,0.864,0.552,1.065,0.747,0.349,0.604,0.570,�k��,6.6,��
2022/04/01,12:40,0.585,0.864,0.551,1.063,0.748,0.350,0.603,0.570,�k�k��,10.3,��
2022/04/01,12:50,0.581,0.864,0.552,1.066,0.750,0.349,0.603,0.573,�k�k��,8.1,��
2022/04/01,13:00,0.583,0.864,0.552,1.065,0.748,0.350,0.602,0.573,�k�k��,7.9,��
2022/04/01,13:10,0.583,0.864,0.553,1.064,0.748,0.350,0.603,0.573,�k�k��,4.9,��
2022/04/01,13:20,0.583,0.862,0.552,1.064,0.746,0.350,0.603,0.569,�k��,4.3,��
2022/04/01,13:30,0.583,0.864,0.553,1.063,0.748,0.349,0.603,0.571,�k�k��,3.2,��
2022/04/01,13:40,0.582,0.862,0.552,1.068,0.749,0.350,0.603,0.572,�k�k��,4.7,��
2022/04/01,13:50,0.582,0.864,0.553,1.066,0.747,0.349,0.605,0.574,�k�k��,6.7,��
2022/04/01,14:00,0.583,0.864,0.553,1.064,0.747,0.348,0.603,0.572,�k��,5.8,��
2022/04/01,14:10,0.582,0.864,0.552,1.068,0.744,0.349,0.603,0.571,�k��,7.9,��
2022/04/01,14:20,0.582,0.861,0.551,1.066,0.748,0.350,0.605,0.572,�k��,7.7,��
2022/04/01,14:30,0.584,0.863,0.552,1.065,0.746,0.349,0.603,0.571,���k��,6.1,��
2022/04/01,14:40,0.582,0.861,0.552,1.066,0.747,0.350,0.603,0.573,���k��,7.2,��
2022/04/01,14:50,0.582,0.863,0.552,1.065,0.747,0.350,0.603,0.572,�k��,6.9,��
2022/04/01,15:00,0.583,0.864,0.552,1.066,0.748,0.351,0.605,0.571,�k��,7.6,��
2022/04/01,15:10,0.582,0.864,0.551,1.065,0.747,0.350,0.603,0.570,�k��,7.1,��
2022/04/01,15:20,0.583,0.865,0.552,1.066,0.747,0.349,0.603,0.572,���k��,10.0,��
2022/04/01,15:30,0.583,0.866,0.552,1.067,0.749,0.350,0.603,0.573,���k��,9.4,��
2022/04/01,15:40,0.581,0.867,0.553,1.065,0.745,0.350,0.604,0.570,�k��,7.0,��
2022/04/01,15:50,0.582,0.868,0.554,1.068,0.751,0.350,0.603,0.571,�k��,11.7,��
2022/04/01,16:00,0.583,0.866,0.552,1.067,0.746,0.350,0.604,0.573,�k��,9.5,��
2022/04/01,16:10,0.582,0.867,0.552,1.069,0.748,0.349,0.603,0.572,�k��,8.9,��
2022/04/01,16:20,0.584,0.867,0.553,1.068,0.748,0.349,0.604,0.575,�k��,8.7,��
2022/04/01,16:30,0.582,0.865,0.553,1.065,0.748,0.350,0.602,0.575,�k��,9.3,��
2022/04/01,16:40,0.582,0.865,0.553,1.068,0.748,0.350,0.603,0.574,�k��,9.8,��
2022/04/01,16:50,0.582,0.863,0.552,1.067,0.750,0.350,0.603,0.573,�k��,10.4,��
2022/04/01,17:00,0.583,0.865,0.550,1.070,0.748,0.349,0.605,0.572,�k��,10.9,��
2022/04/01,17:10,0.581,0.867,0.551,1.066,0.748,0.350,0.603,0.574,�k��,9.9,��
2022/04/01,17:20,0.582,0.866,0.552,1.066,0.751,0.349,0.604,0.573,�k��,7.2,��
2022/04/01,17:30,0.583,0.867,0.552,1.066,0.748,0.351,0.605,0.573,���k��,6.8,��
2022/04/01,17:40,0.583,0.869,0.552,1.067,0.751,0.349,0.605,0.574,�k��,6.1,��
2022/04/01,17:50,0.584,0.868,0.552,1.069,0.750,0.350,0.606,0.574,�k�k��,6.7,��
2022/04/01,18:00,0.583,0.868,0.551,1.069,0.750,0.350,0.606,0.574,�k��,6.4,��
2022/04/01,18:10,0.582,0.868,0.552,1.066,0.751,0.348,0.606,0.573,�k��,5.7,��
2022/04/01,18:20,0.584,0.870,0.551,1.066,0.749,0.349,0.608,0.573,�k��,6.8,��
2022/04/01,18:30,0.584,0.867,0.551,1.068,0.749,0.348,0.607,0.574,�k��,6.1,��
2022/04/01,18:40,0.582,0.867,0.552,1.068,0.751,0.350,0.606,0.573,�k��,5.5,��
2022/04/01,18:50,0.584,0.868,0.550,1.070,0.748,0.349,0.606,0.573,�k��,5.4,��
2022/04/01,19:00,0.582,0.869,0.550,1.068,0.750,0.349,0.605,0.573,�k��,5.5,��
2022/04/01,19:10,0.582,0.867,0.551,1.069,0.751,0.350,0.606,0.573,�k��,5.0,��
2022/04/01,19:20,0.584,0.867,0.550,1.070,0.749,0.349,0.606,0.573,�k��,4.3,��
2022/04/01,19:30,0.581,0.867,0.552,1.069,0.750,0.349,0.604,0.573,�k��,4.0,��
2022/04/01,19:40,0.583,0.869,0.553,1.068,0.750,0.348,0.605,0.574,�k�k��,4.2,��
2022/04/01,19:50,0.583,0.870,0.551,1.068,0.751,0.349,0.605,0.574,�k��,4.9,��
2022/04/01,20:00,0.581,0.867,0.552,1.066,0.750,0.349,0.605,0.573,�k��,4.5,��
2022/04/01,20:10,0.583,0.868,0.551,1.068,0.751,0.348,0.606,0.572,�k��,5.8,��
2022/04/01,20:20,0.581,0.871,0.552,1.065,0.751,0.349,0.605,0.574,�k��,5.8,��
2022/04/01,20:30,0.584,0.868,0.553,1.068,0.749,0.348,0.602,0.572,���k��,6.8,��
2022/04/01,20:40,0.581,0.868,0.551,1.067,0.750,0.348,0.605,0.572,���k��,6.2,��
2022/04/01,20:50,0.582,0.868,0.550,1.067,0.750,0.348,0.605,0.574,���k��,5.1,��
2022/04/01,21:00,0.582,0.866,0.552,1.067,0.750,0.348,0.605,0.573,���k��,5.4,��
2022/04/01,21:10,0.582,0.870,0.551,1.066,0.751,0.348,0.603,0.572,�k��,5.9,��
2022/04/01,21:20,0.582,0.867,0.551,1.066,0.750,0.348,0.605,0.573,�k��,5.8,��
2022/04/01,21:30,0.581,0.867,0.551,1.069,0.751,0.348,0.605,0.571,�k��,4.7,��
2022/04/01,21:40,0.582,0.865,0.552,1.068,0.749,0.348,0.605,0.572,�k��,4.9,��
2022/04/01,21:50,0.581,0.869,0.550,1.067,0.750,0.348,0.604,0.573,�k��,5.5,��
2022/04/01,22:00,0.582,0.867,0.550,1.068,0.750,0.348,0.603,0.573,�k��,4.5,��
2022/04/01,22:10,0.582,0.867,0.550,1.067,0.750,0.349,0.603,0.572,�k��,3.2,��
2022/04/01,22:20,0.583,0.867,0.550,1.068,0.750,0.349,0.604,0.572,�k��,2.9,��
2022/04/01,22:30,0.582,0.866,0.550,1.067,0.749,0.349,0.603,0.572,�k��,3.2,��
2022/04/01,22:40,0.581,0.867,0.551,1.066,0.749,0.348,0.604,0.571,�k��,2.8,��
2022/04/01,22:50,0.583,0.866,0.550,1.067,0.748,0.349,0.604,0.571,�k��,5.0,��
2022/04/01,23:00,0.581,0.868,0.549,1.068,0.749,0.346,0.603,0.573,�k�k��,6.1,��
2022/04/01,23:10,0.582,0.868,0.550,1.068,0.750,0.349,0.604,0.571,�k�k��,6.2,��
2022/04/01,23:20,0.581,0.866,0.550,1.066,0.750,0.347,0.604,0.571,�k�k��,7.3,��
2022/04/01,23:30,0.581,0.868,0.548,1.068,0.750,0.350,0.602,0.573,�k��,6.7,��
2022/04/01,23:40,0.581,0.867,0.552,1.065,0.750,0.348,0.604,0.571,�k��,5.8,��
2022/04/01,23:50,0.580,0.869,0.551,1.067,0.748,0.348,0.604,0.571,�k��,5.9,��
